Retour au catalogue

STARLINK-31757

ActifCommunicationsVLEO
NORAD 59427·PAYLOAD·🇺🇸 United States

Lancé Apr 7, 2024 depuis Vandenberg Space Force Base

Loading…

Prochains Passages (prochaines 24 heures)

TLE

FraisSource: CelesTrak SupGP

Époque: Sep 15, 2026, 02:17 UTC

1 59427C 24065G   26258.09562500  .00035091  00000+0  10368-2 0  2589
2 59427  53.1567 118.7053 0001242  80.7951 278.4092 15.34373520    16

Suivez STARLINK-31757 en temps réel avec AllMySat

Download on the App Store